Buckeye, AZ

9:19 AM MST on December 16, 2017 (GMT -0700)
Buckeye Municipal

Weather History for KBXK - November, 2012

Change the Weather History Date:

Thursday, November 8, 2012

  Actual Average (KGYR) Record (KGYR)
Temperature  
Mean Temperature 65 °F -  
Max Temperature 82 °F 74 °F 91 °F (2016)
Min Temperature 48 °F 49 °F 35 °F (2013)
Growing Degree Days 15 (Base 50)    
Moisture  
Dew Point 35 °F    
Average Humidity 36    
Maximum Humidity 73    
Minimum Humidity 15    
Precipitation  
Precipitation 0.00 in - - ()
Sea Level Pressure  
Sea Level Pressure 29.87 in    
Wind  
Wind Speed 5 mph (NE)    
Max Wind Speed 16 mph    
Max Gust Speed 24 mph    
Visibility 9 miles    
Events      
Averages and records for this station are not official NWS values.
T = Trace of Precipitation, MM = Missing Value Source: NWS Daily Summary

Daily Weather History Graph

Daily Weather History Graph

Search for Another Location

Airport or City:

Trip Planner

Search our weather history database for the weather conditions in past years. The results will help you decide how hot, cold, wet, or windy it might be!

Date:

Astronomy

Nov. 08, 2012 Rise Set
Actual Time 6:56 AM MST 5:32 PM MST
Civil Twilight 6:30 AM MST 5:58 PM MST
Nautical Twilight 6:00 AM MST 6:28 PM MST
Astronomical Twilight 5:31 AM MST 6:57 PM MST
Moon 1:12 AM MST (11/8) 2:00 PM MST (11/8)
Length of Visible Light 11h 28m
Length of Day
10h 36m
Waning Crescent, 32% of the Moon is Illuminated
Nov 8
Waning Crescent
Nov 13
New
Nov 20
First Quarter
Nov 28
Full
Dec 6
Last Quarter

Hourly Weather History & Observations

Time (MST) Temp. Dew Point Humidity Pressure Visibility Wind Dir Wind Speed Gust Speed Precip Events Conditions
12:15 AM 60.8 °F 24.8 °F 25% 29.89 in 10.0 mi East 3.5 mph - N/A   Partly Cloudy
12:35 AM 59.0 °F 23.0 °F 25% 29.89 in 10.0 mi NE 3.5 mph - N/A   Partly Cloudy
12:55 AM 59.0 °F 23.0 °F 25% 29.89 in 10.0 mi NE 3.5 mph - N/A   Mostly Cloudy
1:15 AM 60.8 °F 23.0 °F 23% 29.89 in 10.0 mi East 3.5 mph - N/A   Partly Cloudy
1:35 AM 59.0 °F 24.8 °F 27% 29.89 in 10.0 mi East 6.9 mph - N/A   Clear
1:55 AM 57.2 °F 24.8 °F 29% 29.89 in 8.0 mi ENE 3.5 mph - N/A   Partly Cloudy
2:15 AM 57.2 °F 23.0 °F 27% 29.88 in 9.0 mi North 4.6 mph - N/A   Partly Cloudy
2:35 AM 55.4 °F 23.0 °F 29% 29.88 in 10.0 mi North 5.8 mph - N/A   Partly Cloudy
2:55 AM 55.4 °F 23.0 °F 29% 29.88 in 10.0 mi North 4.6 mph - N/A   Clear
3:15 AM 55.4 °F 23.0 °F 29% 29.88 in 5.0 mi Calm Calm - N/A   Clear
3:35 AM 55.4 °F 24.8 °F 31% 29.87 in 6.0 mi NNW 3.5 mph - N/A   Clear
3:55 AM 53.6 °F 23.0 °F 30% 29.87 in 5.0 mi NNW 8.1 mph - N/A   Clear
4:15 AM 53.6 °F 21.2 °F 28% 29.87 in 7.0 mi NNW 4.6 mph - N/A   Clear
4:35 AM 53.6 °F 21.2 °F 28% 29.87 in 9.0 mi North 5.8 mph - N/A   Clear
4:55 AM 50.0 °F 23.0 °F 35% 29.87 in 8.0 mi Calm Calm - N/A   Clear
5:15 AM 50.0 °F 24.8 °F 37% 29.88 in 10.0 mi West 3.5 mph - N/A   Clear
5:35 AM 48.2 °F 24.8 °F 40% 29.89 in 10.0 mi WNW 3.5 mph - N/A   Clear
5:55 AM 50.0 °F 23.0 °F 35% 29.88 in 9.0 mi NNW 5.8 mph - N/A   Clear
6:15 AM 50.0 °F 23.0 °F 35% 29.88 in 9.0 mi NNW 5.8 mph - N/A   Clear
6:35 AM 50.0 °F 23.0 °F 35% 29.89 in 8.0 mi NW 6.9 mph - N/A   Clear
6:55 AM 50.0 °F 23.0 °F 35% 29.90 in 3.0 mi NNW 5.8 mph - N/A   Clear
7:15 AM 50.0 °F 23.0 °F 35% 29.90 in 2.0 mi NNW 6.9 mph - N/A   Clear
7:35 AM 50.0 °F 23.0 °F 35% 29.91 in 3.0 mi North 5.8 mph - N/A   Clear
7:55 AM 53.6 °F 23.0 °F 30% 29.92 in 6.0 mi North 4.6 mph - N/A   Clear
8:15 AM 57.2 °F 23.0 °F 27% 29.92 in 5.0 mi Calm Calm - N/A   Clear
8:35 AM 59.0 °F 26.6 °F 29% 29.93 in 5.0 mi WNW 3.5 mph - N/A   Clear
8:55 AM 62.6 °F 24.8 °F 24% 29.94 in 9.0 mi West 3.5 mph - N/A   Clear
9:15 AM 64.4 °F 28.4 °F 26% 29.95 in 9.0 mi West 4.6 mph - N/A   Clear
9:35 AM 66.2 °F 28.4 °F 24% 29.95 in 8.0 mi Calm Calm - N/A   Clear
9:55 AM 68.0 °F 28.4 °F 23% 29.95 in 10.0 mi Calm Calm - N/A   Clear
10:15 AM 69.8 °F 33.8 °F 27% 29.95 in 10.0 mi South 5.8 mph - N/A   Clear
10:35 AM 71.6 °F 33.8 °F 25% 29.94 in 10.0 mi East 5.8 mph - N/A   Clear
10:55 AM 73.4 °F 35.6 °F 25% 29.93 in 10.0 mi ESE 8.1 mph - N/A   Clear
11:15 AM 73.4 °F 37.4 °F 27% 29.93 in 9.0 mi East 8.1 mph - N/A   Clear
11:55 AM 77.0 °F 33.8 °F 21% 29.91 in 10.0 mi SSE 6.9 mph - N/A   Clear
12:15 PM 78.8 °F 33.8 °F 20% 29.90 in 10.0 mi SE 6.9 mph - N/A   Clear
12:35 PM 80.6 °F 32.0 °F 17% 29.89 in 10.0 mi SE 6.9 mph - N/A   Clear
12:55 PM 80.6 °F 32.0 °F 17% 29.88 in 10.0 mi South 4.6 mph - N/A   Partly Cloudy
1:15 PM 82.4 °F 32.0 °F 16% 29.87 in 9.0 mi South 8.1 mph - N/A   Partly Cloudy
1:35 PM 82.4 °F 30.2 °F 15% 29.86 in 10.0 mi SSW 9.2 mph - N/A   Partly Cloudy
1:55 PM 82.4 °F 32.0 °F 16% 29.86 in 5.0 mi South 8.1 mph - N/A   Scattered Clouds
2:15 PM 80.6 °F 32.0 °F 17% 29.84 in 8.0 mi SSW 4.6 mph - N/A   Partly Cloudy
2:35 PM 80.6 °F 32.0 °F 17% 29.84 in 10.0 mi WSW 6.9 mph - N/A   Scattered Clouds
2:55 PM 80.6 °F 35.6 °F 20% 29.85 in 10.0 mi WSW 6.9 mph - N/A   Scattered Clouds
3:15 PM 80.6 °F 35.6 °F 20% 29.85 in 10.0 mi SW 3.5 mph - N/A   Partly Cloudy
3:35 PM 80.6 °F 37.4 °F 21% 29.84 in 10.0 mi SSE 5.8 mph - N/A   Partly Cloudy
3:55 PM 78.8 °F 39.2 °F 24% 29.84 in 10.0 mi South 5.8 mph - N/A   Partly Cloudy
4:15 PM 77.0 °F 41.0 °F 28% 29.83 in 8.0 mi South 4.6 mph - N/A   Partly Cloudy
4:35 PM 77.0 °F 41.0 °F 28% 29.83 in 4.0 mi South 3.5 mph - N/A   Mostly Cloudy
4:55 PM 77.0 °F 39.2 °F 26% 29.83 in 10.0 mi SW 9.2 mph - N/A   Overcast
5:15 PM 77.0 °F 39.2 °F 26% 29.86 in 8.0 mi SW 16.1 mph 24.2 mph N/A   Overcast
5:35 PM 73.4 °F 50.0 °F 44% 29.85 in 10.0 mi SW 11.5 mph - N/A   Overcast
5:55 PM 73.4 °F 48.2 °F 41% 29.87 in 10.0 mi WSW 8.1 mph - N/A   Overcast
6:15 PM 69.8 °F 53.6 °F 56% 29.88 in 9.0 mi WNW 6.9 mph - N/A   Overcast
6:35 PM 68.0 °F 53.6 °F 60% 29.89 in 8.0 mi NW 8.1 mph - N/A   Overcast
6:55 PM 68.0 °F 53.6 °F 60% 29.87 in 10.0 mi NNE 10.4 mph - N/A   Mostly Cloudy
7:15 PM 66.2 °F 55.4 °F 68% 29.86 in 10.0 mi NNE 10.4 mph - N/A   Overcast
7:35 PM 66.2 °F 55.4 °F 68% 29.84 in 10.0 mi NNE 13.8 mph - N/A   Overcast
7:55 PM 66.2 °F 55.4 °F 68% 29.84 in 10.0 mi NE 9.2 mph - N/A   Overcast
8:15 PM 66.2 °F 55.4 °F 68% 29.83 in 10.0 mi NNE 6.9 mph - N/A   Overcast
8:35 PM 66.2 °F 55.4 °F 68% 29.83 in 10.0 mi ENE 6.9 mph - N/A   Overcast
8:55 PM 64.4 °F 55.4 °F 73% 29.84 in 10.0 mi SE 5.8 mph - N/A   Overcast
9:15 PM 64.4 °F 55.4 °F 73% 29.83 in 10.0 mi ESE 4.6 mph - N/A   Overcast
9:35 PM 64.4 °F 55.4 °F 73% 29.84 in 10.0 mi Calm Calm - N/A   Scattered Clouds
9:55 PM 64.4 °F 53.6 °F 68% 29.84 in 10.0 mi Calm Calm - N/A   Mostly Cloudy
10:15 PM 64.4 °F 53.6 °F 68% 29.84 in 10.0 mi NNE 3.5 mph - N/A   Mostly Cloudy
10:35 PM 64.4 °F 50.0 °F 59% 29.83 in 10.0 mi ENE 9.2 mph - N/A   Scattered Clouds
10:55 PM 66.2 °F 50.0 °F 56% 29.83 in 10.0 mi ENE 11.5 mph - N/A   Clear
11:15 PM 68.0 °F 50.0 °F 52% 29.82 in 10.0 mi ENE 11.5 mph - N/A   Clear
11:35 PM 66.2 °F 50.0 °F 56% 29.82 in 10.0 mi ENE 12.7 mph - N/A   Clear
11:55 PM 68.0 °F 50.0 °F 52% 29.82 in 10.0 mi East 12.7 mph 18.4 mph N/A   Clear